Location: B�hl
(48.6968°N, 8.1352°E)
Time: 22:45:08
(UTC+00:00)

Cosmos 1898 Rocket - Pass Details

Date: 08 March 2021
Orbit: 753 x 784 km, 74.0° (Epoch: 14 April)

Event Time Altitude Azimuth Distance (km) Brightness Sun altitude
Rises 18:29:20 0° 342° (NNW) 3,232 7.1 -11.9°
Reaches altitude 10° 18:32:00 10° 353° (N) 2,307 6.2 -12.3°
Maximum altitude 18:36:35 30° 55° (NE) 1,356 4.4 -13.1°
Enters shadow 18:39:14 20° 100° (E) 1,737 4.7 -13.5°
